Year,Month,Day,Hour,Minute,Value (Times are PST for temperature in C)
2012,09,27,00,00,10.40
2012,09,27,00,01,10.40
2012,09,27,00,02,10.40
2012,09,27,00,03,10.40
2012,09,27,00,04,10.40
2012,09,27,00,05,10.40
2012,09,27,00,06,10.40
2012,09,27,00,07,10.40
2012,09,27,00,08,10.40
2012,09,27,00,09,10.40
2012,09,27,00,10,10.30
2012,09,27,00,11,10.30
2012,09,27,00,12,10.30
2012,09,27,00,13,10.30
2012,09,27,00,14,10.30
2012,09,27,00,15,10.30
2012,09,27,00,16,10.30
2012,09,27,00,17,10.30
2012,09,27,00,18,10.30
2012,09,27,00,19,10.30
2012,09,27,00,20,10.30
2012,09,27,00,21,10.20
2012,09,27,00,22,10.20
2012,09,27,00,23,10.20
2012,09,27,00,24,10.20
2012,09,27,00,25,10.20
2012,09,27,00,26,10.20
2012,09,27,00,27,10.20
2012,09,27,00,28,10.20
2012,09,27,00,29,10.20
2012,09,27,00,30,10.20
2012,09,27,00,31,10.20
2012,09,27,00,32,10.20
2012,09,27,00,33,10.20
2012,09,27,00,34,10.20
2012,09,27,00,35,10.20
2012,09,27,00,36,10.10
2012,09,27,00,37,10.10
2012,09,27,00,38,10.10
2012,09,27,00,39,10.10
2012,09,27,00,40,10.10
2012,09,27,00,41,10.10
2012,09,27,00,42,10.10
2012,09,27,00,43,10.10
2012,09,27,00,44,10.10
2012,09,27,00,45,10.10
2012,09,27,00,46,10.00
2012,09,27,00,47,10.00
2012,09,27,00,48,10.00
2012,09,27,00,49,10.00
2012,09,27,00,50,10.00
2012,09,27,00,51,10.00
2012,09,27,00,52,10.00
2012,09,27,00,53,9.90
2012,09,27,00,54,9.90
2012,09,27,00,55,9.90
2012,09,27,00,56,9.90
2012,09,27,00,57,9.90
2012,09,27,00,58,9.90
2012,09,27,00,59,9.90
2012,09,27,01,00,9.90
2012,09,27,01,01,9.90
2012,09,27,01,02,9.90
2012,09,27,01,03,9.90
2012,09,27,01,04,9.90
2012,09,27,01,05,9.90
2012,09,27,01,06,9.90
2012,09,27,01,07,9.90
2012,09,27,01,08,9.90
2012,09,27,01,09,9.90
2012,09,27,01,10,9.90
2012,09,27,01,11,9.90
2012,09,27,01,12,9.90
2012,09,27,01,13,9.90
2012,09,27,01,14,9.90
2012,09,27,01,15,9.90
2012,09,27,01,16,9.80
2012,09,27,01,17,9.80
2012,09,27,01,18,9.80
2012,09,27,01,19,9.80
2012,09,27,01,20,9.80
2012,09,27,01,21,9.80
2012,09,27,01,22,9.80
2012,09,27,01,23,9.80
2012,09,27,01,24,9.80
2012,09,27,01,25,9.80
2012,09,27,01,26,9.80
2012,09,27,01,27,9.70
2012,09,27,01,28,9.70
2012,09,27,01,29,9.70
2012,09,27,01,30,9.70
2012,09,27,01,31,9.70
2012,09,27,01,32,9.70
2012,09,27,01,33,9.70
2012,09,27,01,34,9.70
2012,09,27,01,35,9.70
2012,09,27,01,36,9.70
2012,09,27,01,37,9.60
2012,09,27,01,38,9.60
2012,09,27,01,39,9.60
2012,09,27,01,40,9.60
2012,09,27,01,41,9.60
2012,09,27,01,42,9.60
2012,09,27,01,43,9.60
2012,09,27,01,44,9.60
2012,09,27,01,45,9.60
2012,09,27,01,46,9.60
2012,09,27,01,47,9.60
2012,09,27,01,48,9.60
2012,09,27,01,49,9.60
2012,09,27,01,50,9.60
2012,09,27,01,51,9.60
2012,09,27,01,52,9.60
2012,09,27,01,53,9.60
2012,09,27,01,54,9.60
2012,09,27,01,55,9.60
2012,09,27,01,56,9.60
2012,09,27,01,57,9.60
2012,09,27,01,58,9.60
2012,09,27,01,59,9.60
2012,09,27,02,00,9.50
2012,09,27,02,01,9.50
2012,09,27,02,02,9.50
2012,09,27,02,03,9.50
2012,09,27,02,04,9.50
2012,09,27,02,05,9.50
2012,09,27,02,06,9.50
2012,09,27,02,07,9.50
2012,09,27,02,08,9.50
2012,09,27,02,09,9.40
2012,09,27,02,10,9.40
2012,09,27,02,11,9.40
2012,09,27,02,12,9.40
2012,09,27,02,13,9.40
2012,09,27,02,14,9.40
2012,09,27,02,15,9.40
2012,09,27,02,16,9.40
2012,09,27,02,17,9.40
2012,09,27,02,18,9.40
2012,09,27,02,19,9.40
2012,09,27,02,20,9.40
2012,09,27,02,21,9.40
2012,09,27,02,22,9.40
2012,09,27,02,23,9.40
2012,09,27,02,24,9.40
2012,09,27,02,25,9.40
2012,09,27,02,26,9.30
2012,09,27,02,27,9.30
2012,09,27,02,28,9.30
2012,09,27,02,29,9.30
2012,09,27,02,30,9.30
2012,09,27,02,31,9.30
2012,09,27,02,32,9.30
2012,09,27,02,33,9.30
2012,09,27,02,34,9.30
2012,09,27,02,35,9.30
2012,09,27,02,36,9.30
2012,09,27,02,37,9.30
2012,09,27,02,38,9.30
2012,09,27,02,39,9.30
2012,09,27,02,40,9.30
2012,09,27,02,41,9.30
2012,09,27,02,42,9.20
2012,09,27,02,43,9.20
2012,09,27,02,44,9.20
2012,09,27,02,45,9.20
2012,09,27,02,46,9.20
2012,09,27,02,47,9.20
2012,09,27,02,48,9.20
2012,09,27,02,49,9.20
2012,09,27,02,50,9.20
2012,09,27,02,51,9.20
2012,09,27,02,52,9.20
2012,09,27,02,53,9.20
2012,09,27,02,54,9.20
2012,09,27,02,55,9.20
2012,09,27,02,56,9.20
2012,09,27,02,57,9.10
2012,09,27,02,58,9.10
2012,09,27,02,59,9.10
2012,09,27,03,00,9.10
2012,09,27,03,01,9.10
2012,09,27,03,02,9.10
2012,09,27,03,03,9.10
2012,09,27,03,04,9.10
2012,09,27,03,05,9.10
2012,09,27,03,06,9.10
2012,09,27,03,07,9.10
2012,09,27,03,08,9.10
2012,09,27,03,09,9.00
2012,09,27,03,10,9.00
2012,09,27,03,11,9.00
2012,09,27,03,12,9.00
2012,09,27,03,13,9.00
2012,09,27,03,14,9.00
2012,09,27,03,15,9.00
2012,09,27,03,16,9.00
2012,09,27,03,17,8.90
2012,09,27,03,18,8.90
2012,09,27,03,19,8.90
2012,09,27,03,20,8.90
2012,09,27,03,21,8.90
2012,09,27,03,22,8.90
2012,09,27,03,23,8.90
2012,09,27,03,24,8.90
2012,09,27,03,25,8.90
2012,09,27,03,26,8.90
2012,09,27,03,27,8.90
2012,09,27,03,28,8.90
2012,09,27,03,29,8.90
2012,09,27,03,30,8.90
2012,09,27,03,31,8.90
2012,09,27,03,32,8.90
2012,09,27,03,33,8.90
2012,09,27,03,34,8.90
2012,09,27,03,35,8.90
2012,09,27,03,36,8.90
2012,09,27,03,37,8.90
2012,09,27,03,38,8.90
2012,09,27,03,39,8.90
2012,09,27,03,40,8.90
2012,09,27,03,41,8.80
2012,09,27,03,42,8.80
2012,09,27,03,43,8.80
2012,09,27,03,44,8.80
2012,09,27,03,45,8.80
2012,09,27,03,46,8.80
2012,09,27,03,47,8.80
2012,09,27,03,48,8.80
2012,09,27,03,49,8.80
2012,09,27,03,50,8.80
2012,09,27,03,51,8.80
2012,09,27,03,52,8.80
2012,09,27,03,53,8.80
2012,09,27,03,54,8.80
2012,09,27,03,55,8.80
2012,09,27,03,56,8.80
2012,09,27,03,57,8.80
2012,09,27,03,58,8.80
2012,09,27,03,59,8.80
2012,09,27,04,00,8.70
2012,09,27,04,01,8.70
2012,09,27,04,02,8.70
2012,09,27,04,03,8.70
2012,09,27,04,04,8.70
2012,09,27,04,05,8.70
2012,09,27,04,06,8.70
2012,09,27,04,07,8.70
2012,09,27,04,08,8.70
2012,09,27,04,09,8.70
2012,09,27,04,10,8.70
2012,09,27,04,11,8.70
2012,09,27,04,12,8.70
2012,09,27,04,13,8.70
2012,09,27,04,14,8.70
2012,09,27,04,15,8.70
2012,09,27,04,16,8.70
2012,09,27,04,17,8.70
2012,09,27,04,18,8.70
2012,09,27,04,19,8.70
2012,09,27,04,20,8.70
2012,09,27,04,21,8.70
2012,09,27,04,22,8.70
2012,09,27,04,23,8.70
2012,09,27,04,24,8.70
2012,09,27,04,25,8.70
2012,09,27,04,26,8.70
2012,09,27,04,27,8.70
2012,09,27,04,28,8.70
2012,09,27,04,29,8.70
2012,09,27,04,30,8.70
2012,09,27,04,31,8.70
2012,09,27,04,32,8.70
2012,09,27,04,33,8.70
2012,09,27,04,34,8.70
2012,09,27,04,35,8.70
2012,09,27,04,36,8.70
2012,09,27,04,37,8.70
2012,09,27,04,38,8.70
2012,09,27,04,39,8.70
2012,09,27,04,40,8.70
2012,09,27,04,41,8.70
2012,09,27,04,42,8.60
2012,09,27,04,43,8.60
2012,09,27,04,44,8.60
2012,09,27,04,45,8.60
2012,09,27,04,46,8.60
2012,09,27,04,47,8.60
2012,09,27,04,48,8.60
2012,09,27,04,49,8.60
2012,09,27,04,50,8.60
2012,09,27,04,51,8.60
2012,09,27,04,52,8.60
2012,09,27,04,53,8.60
2012,09,27,04,54,8.60
2012,09,27,04,55,8.60
2012,09,27,04,56,8.60
2012,09,27,04,57,8.60
2012,09,27,04,58,8.60
2012,09,27,04,59,8.50
2012,09,27,05,00,8.50
2012,09,27,05,01,8.50
2012,09,27,05,02,8.50
2012,09,27,05,03,8.50
2012,09,27,05,04,8.50
2012,09,27,05,05,8.50
2012,09,27,05,06,8.50
2012,09,27,05,07,8.50
2012,09,27,05,08,8.50
2012,09,27,05,09,8.50
2012,09,27,05,10,8.50
2012,09,27,05,11,8.50
2012,09,27,05,12,8.50
2012,09,27,05,13,8.50
2012,09,27,05,14,8.40
2012,09,27,05,15,8.40
2012,09,27,05,16,8.40
2012,09,27,05,17,8.40
2012,09,27,05,18,8.40
2012,09,27,05,19,8.40
2012,09,27,05,20,8.40
2012,09,27,05,21,8.40
2012,09,27,05,22,8.40
2012,09,27,05,23,8.40
2012,09,27,05,24,8.40
2012,09,27,05,25,8.30
2012,09,27,05,26,8.30
2012,09,27,05,27,8.30
2012,09,27,05,28,8.30
2012,09,27,05,29,8.30
2012,09,27,05,30,8.30
2012,09,27,05,31,8.30
2012,09,27,05,32,8.30
2012,09,27,05,33,8.30
2012,09,27,05,34,8.30
2012,09,27,05,35,8.30
2012,09,27,05,36,8.30
2012,09,27,05,37,8.30
2012,09,27,05,38,8.30
2012,09,27,05,39,8.30
2012,09,27,05,40,8.30
2012,09,27,05,41,8.30
2012,09,27,05,42,8.30
2012,09,27,05,43,8.30
2012,09,27,05,44,8.30
2012,09,27,05,45,8.30
2012,09,27,05,46,8.30
2012,09,27,05,47,8.30
2012,09,27,05,48,8.30
2012,09,27,05,49,8.30
2012,09,27,05,50,8.30
2012,09,27,05,51,8.30
2012,09,27,05,52,8.30
2012,09,27,05,53,8.30
2012,09,27,05,54,8.30
2012,09,27,05,55,8.30
2012,09,27,05,56,8.30
2012,09,27,05,57,8.30
2012,09,27,05,58,8.20
2012,09,27,05,59,8.20
2012,09,27,06,00,8.20
2012,09,27,06,01,8.30
2012,09,27,06,02,8.30
2012,09,27,06,03,8.30
2012,09,27,06,04,8.30
2012,09,27,06,05,8.30
2012,09,27,06,06,8.30
2012,09,27,06,07,8.20
2012,09,27,06,08,8.30
2012,09,27,06,09,8.20
2012,09,27,06,10,8.20
2012,09,27,06,11,8.20
2012,09,27,06,12,8.20
2012,09,27,06,13,8.20
2012,09,27,06,14,8.20
2012,09,27,06,15,8.20
2012,09,27,06,16,8.20
2012,09,27,06,17,8.20
2012,09,27,06,18,8.20
2012,09,27,06,19,8.20
2012,09,27,06,20,8.20
2012,09,27,06,21,8.20
2012,09,27,06,22,8.20
2012,09,27,06,23,8.20
2012,09,27,06,24,8.20
2012,09,27,06,25,8.20
2012,09,27,06,26,8.20
2012,09,27,06,27,8.20
2012,09,27,06,28,8.20
2012,09,27,06,29,8.20
2012,09,27,06,30,8.20
2012,09,27,06,31,8.10
2012,09,27,06,32,8.10
2012,09,27,06,33,8.10
2012,09,27,06,34,8.10
2012,09,27,06,35,8.10
2012,09,27,06,36,8.10
2012,09,27,06,37,8.10
2012,09,27,06,38,8.10
2012,09,27,06,39,8.10
2012,09,27,06,40,8.10
2012,09,27,06,41,8.10
2012,09,27,06,42,8.10
2012,09,27,06,43,8.10
2012,09,27,06,44,8.10
2012,09,27,06,45,8.10
2012,09,27,06,46,8.10
2012,09,27,06,47,8.10
2012,09,27,06,48,8.10
2012,09,27,06,49,8.10
2012,09,27,06,50,8.10
2012,09,27,06,51,8.10
2012,09,27,06,52,8.10
2012,09,27,06,53,8.10
2012,09,27,06,54,8.10
2012,09,27,06,55,8.10
2012,09,27,06,56,8.10
2012,09,27,06,57,8.00
2012,09,27,06,58,8.00
2012,09,27,06,59,8.00
2012,09,27,07,00,8.00
2012,09,27,07,01,8.00
2012,09,27,07,02,8.00
2012,09,27,07,03,8.00
2012,09,27,07,04,8.00
2012,09,27,07,05,8.00
2012,09,27,07,06,8.00
2012,09,27,07,07,8.00
2012,09,27,07,08,8.00
2012,09,27,07,09,8.00
2012,09,27,07,10,7.90
2012,09,27,07,11,7.90
2012,09,27,07,12,7.90
2012,09,27,07,13,7.90
2012,09,27,07,14,7.90
2012,09,27,07,15,7.90
2012,09,27,07,16,7.90
2012,09,27,07,17,7.90
2012,09,27,07,18,7.90
2012,09,27,07,19,7.90
2012,09,27,07,20,7.90
2012,09,27,07,21,7.90
2012,09,27,07,22,7.90
2012,09,27,07,23,7.90
2012,09,27,07,24,7.90
2012,09,27,07,25,7.90
2012,09,27,07,26,7.90
2012,09,27,07,27,7.90
2012,09,27,07,28,7.90
2012,09,27,07,29,7.90
2012,09,27,07,30,7.90
2012,09,27,07,31,7.90
2012,09,27,07,32,7.90
2012,09,27,07,33,7.90
2012,09,27,07,34,7.90
2012,09,27,07,35,7.90
2012,09,27,07,36,7.80
2012,09,27,07,37,7.90
2012,09,27,07,38,7.80
2012,09,27,07,39,7.80
2012,09,27,07,40,7.80
2012,09,27,07,41,7.80
2012,09,27,07,42,7.80
2012,09,27,07,43,7.80
2012,09,27,07,44,7.80
2012,09,27,07,45,7.80
2012,09,27,07,46,7.80
2012,09,27,07,47,7.80
2012,09,27,07,48,7.80
2012,09,27,07,49,7.80
2012,09,27,07,50,7.80
2012,09,27,07,51,7.80
2012,09,27,07,52,7.80
2012,09,27,07,53,7.80
2012,09,27,07,54,7.80
2012,09,27,07,55,7.80
2012,09,27,07,56,7.80
2012,09,27,07,57,7.90
2012,09,27,07,58,7.90
2012,09,27,07,59,7.90
2012,09,27,08,00,7.90
2012,09,27,08,01,7.90
2012,09,27,08,02,7.90
2012,09,27,08,03,7.90
2012,09,27,08,04,7.90
2012,09,27,08,05,7.90
2012,09,27,08,06,7.90
2012,09,27,08,07,7.90
2012,09,27,08,08,7.90
2012,09,27,08,09,7.90
2012,09,27,08,10,7.90
2012,09,27,08,11,7.90
2012,09,27,08,12,7.90
2012,09,27,08,13,7.90
2012,09,27,08,14,7.90
2012,09,27,08,15,7.90
2012,09,27,08,16,7.90
2012,09,27,08,17,7.90
2012,09,27,08,18,8.00
2012,09,27,08,19,8.00
2012,09,27,08,20,8.00
2012,09,27,08,21,8.00
2012,09,27,08,22,8.00
2012,09,27,08,23,8.00
2012,09,27,08,24,8.00
2012,09,27,08,25,8.00
2012,09,27,08,26,8.00
2012,09,27,08,27,8.00
2012,09,27,08,28,8.00
2012,09,27,08,29,8.00
2012,09,27,08,30,8.00
2012,09,27,08,31,8.00
2012,09,27,08,32,8.00
2012,09,27,08,33,8.00
2012,09,27,08,34,8.00
2012,09,27,08,35,8.00
2012,09,27,08,36,8.00
2012,09,27,08,37,8.10
2012,09,27,08,38,8.10
2012,09,27,08,39,8.10
2012,09,27,08,40,8.10
2012,09,27,08,41,8.10
2012,09,27,08,42,8.10
2012,09,27,08,43,8.10
2012,09,27,08,44,8.20
2012,09,27,08,45,8.20
2012,09,27,08,46,8.20
2012,09,27,08,47,8.20
2012,09,27,08,48,8.20
2012,09,27,08,49,8.20
2012,09,27,08,50,8.20
2012,09,27,08,51,8.20
2012,09,27,08,52,8.20
2012,09,27,08,53,8.20
2012,09,27,08,54,8.20
2012,09,27,08,55,8.30
2012,09,27,08,56,8.30
2012,09,27,08,57,8.30
2012,09,27,08,58,8.30
2012,09,27,08,59,8.30
2012,09,27,09,00,8.30
2012,09,27,09,01,8.30
2012,09,27,09,02,8.40
2012,09,27,09,03,8.40
2012,09,27,09,04,8.40
2012,09,27,09,05,8.40
2012,09,27,09,06,8.40
2012,09,27,09,07,8.40
2012,09,27,09,08,8.50
2012,09,27,09,09,8.50
2012,09,27,09,10,8.50
2012,09,27,09,11,8.60
2012,09,27,09,12,8.60
2012,09,27,09,13,8.60
2012,09,27,09,14,8.60
2012,09,27,09,15,8.60
2012,09,27,09,16,8.60
2012,09,27,09,17,8.70
2012,09,27,09,18,8.70
2012,09,27,09,19,8.70
2012,09,27,09,20,8.70
2012,09,27,09,21,8.80
2012,09,27,09,22,8.80
2012,09,27,09,23,8.80
2012,09,27,09,24,8.90
2012,09,27,09,25,8.90
2012,09,27,09,26,8.90
2012,09,27,09,27,8.90
2012,09,27,09,28,9.00
2012,09,27,09,29,9.00
2012,09,27,09,30,9.10
2012,09,27,09,31,9.10
2012,09,27,09,32,9.10
2012,09,27,09,33,9.20
2012,09,27,09,34,9.20
2012,09,27,09,35,9.20
2012,09,27,09,36,9.20
2012,09,27,09,37,9.30
2012,09,27,09,38,9.30
2012,09,27,09,39,9.30
2012,09,27,09,40,9.30
2012,09,27,09,41,9.40
2012,09,27,09,42,9.40
2012,09,27,09,43,9.40
2012,09,27,09,44,9.50
2012,09,27,09,45,9.50
2012,09,27,09,46,9.60
2012,09,27,09,47,9.60
2012,09,27,09,48,9.60
2012,09,27,09,49,9.60
2012,09,27,09,50,9.70
2012,09,27,09,51,9.70
2012,09,27,09,52,9.70
2012,09,27,09,53,9.80
2012,09,27,09,54,9.80
2012,09,27,09,55,9.80
2012,09,27,09,56,9.90
2012,09,27,09,57,9.90
2012,09,27,09,58,9.90
2012,09,27,09,59,10.00
2012,09,27,10,00,10.00
2012,09,27,10,01,10.00
2012,09,27,10,02,10.10
2012,09,27,10,03,10.10
2012,09,27,10,04,10.10
2012,09,27,10,05,10.20
2012,09,27,10,06,10.20
2012,09,27,10,07,10.20
2012,09,27,10,08,10.30
2012,09,27,10,09,10.30
2012,09,27,10,10,10.30
2012,09,27,10,11,10.30
2012,09,27,10,12,10.40
2012,09,27,10,13,10.40
2012,09,27,10,14,10.40
2012,09,27,10,15,10.50
2012,09,27,10,16,10.50
2012,09,27,10,17,10.60
2012,09,27,10,18,10.60
2012,09,27,10,19,10.60
2012,09,27,10,20,10.70
2012,09,27,10,21,10.70
2012,09,27,10,22,10.70
2012,09,27,10,23,10.70
2012,09,27,10,24,10.80
2012,09,27,10,25,10.80
2012,09,27,10,26,10.80
2012,09,27,10,27,10.80
2012,09,27,10,28,10.90
2012,09,27,10,29,11.00
2012,09,27,10,30,11.10
2012,09,27,10,31,11.20
2012,09,27,10,32,11.30
2012,09,27,10,33,11.30
2012,09,27,10,34,11.40
2012,09,27,10,35,11.40
2012,09,27,10,36,11.50
2012,09,27,10,37,11.60
2012,09,27,10,38,11.60
2012,09,27,10,39,11.70
2012,09,27,10,40,11.80
2012,09,27,10,41,11.80
2012,09,27,10,42,11.90
2012,09,27,10,43,12.00
2012,09,27,10,44,12.00
2012,09,27,10,45,12.10
2012,09,27,10,46,12.20
2012,09,27,10,47,12.30
2012,09,27,10,48,12.30
2012,09,27,10,49,12.40
2012,09,27,10,50,12.50
2012,09,27,10,51,12.60
2012,09,27,10,52,12.70
2012,09,27,10,53,12.80
2012,09,27,10,54,12.90
2012,09,27,10,55,13.00
2012,09,27,10,56,13.10
2012,09,27,10,57,13.20
2012,09,27,10,58,13.30
2012,09,27,10,59,13.40
2012,09,27,11,00,13.50
2012,09,27,11,01,13.50
2012,09,27,11,02,13.70
2012,09,27,11,03,13.70
2012,09,27,11,04,13.80
2012,09,27,11,05,13.90
2012,09,27,11,06,14.00
2012,09,27,11,07,14.10
2012,09,27,11,08,14.20
2012,09,27,11,09,14.20
2012,09,27,11,10,14.30
2012,09,27,11,11,14.40
2012,09,27,11,12,14.40
2012,09,27,11,13,14.50
2012,09,27,11,14,14.60
2012,09,27,11,15,14.60
2012,09,27,11,16,14.70
2012,09,27,11,17,14.70
2012,09,27,11,18,14.80
2012,09,27,11,19,14.80
2012,09,27,11,20,15.00
2012,09,27,11,21,15.00
2012,09,27,11,22,15.00
2012,09,27,11,23,15.00
2012,09,27,11,24,15.00
2012,09,27,11,25,15.00
2012,09,27,11,26,15.00
2012,09,27,11,27,15.10
2012,09,27,11,28,15.20
2012,09,27,11,29,15.30
2012,09,27,11,30,15.30
2012,09,27,11,31,15.30
2012,09,27,11,32,15.40
2012,09,27,11,33,15.50
2012,09,27,11,34,15.50
2012,09,27,11,35,15.60
2012,09,27,11,36,15.60
2012,09,27,11,37,15.70
2012,09,27,11,38,15.70
2012,09,27,11,39,15.80
2012,09,27,11,40,15.80
2012,09,27,11,41,15.80
2012,09,27,11,42,15.90
2012,09,27,11,43,15.90
2012,09,27,11,44,15.90
2012,09,27,11,45,16.00
2012,09,27,11,46,16.00
2012,09,27,11,47,16.10
2012,09,27,11,48,16.10
2012,09,27,11,49,16.20
2012,09,27,11,50,16.20
2012,09,27,11,51,16.30
2012,09,27,11,52,16.30
2012,09,27,11,53,16.30
2012,09,27,11,54,16.40
2012,09,27,11,55,16.40
2012,09,27,11,56,16.40
2012,09,27,11,57,16.50
2012,09,27,11,58,16.50
2012,09,27,11,59,16.50
2012,09,27,12,00,16.60
2012,09,27,12,01,16.60
2012,09,27,12,02,16.70
2012,09,27,12,03,16.80
2012,09,27,12,04,16.80
2012,09,27,12,05,16.90
2012,09,27,12,06,17.00
2012,09,27,12,07,17.10
2012,09,27,12,08,17.20
2012,09,27,12,09,17.20
2012,09,27,12,10,17.20
2012,09,27,12,11,17.30
2012,09,27,12,12,17.30
2012,09,27,12,13,17.30
2012,09,27,12,14,17.40
2012,09,27,12,15,17.50
2012,09,27,12,16,17.60
2012,09,27,12,17,17.60
2012,09,27,12,18,17.70
2012,09,27,12,19,17.70
2012,09,27,12,20,17.80
2012,09,27,12,21,17.80
2012,09,27,12,22,17.90
2012,09,27,12,23,17.90
2012,09,27,12,24,18.00
2012,09,27,12,25,18.10
2012,09,27,12,26,18.10
2012,09,27,12,27,18.10
2012,09,27,12,28,18.20
2012,09,27,12,29,18.20
2012,09,27,12,30,18.20
2012,09,27,12,31,18.30
2012,09,27,12,32,18.30
2012,09,27,12,33,18.30
2012,09,27,12,34,18.40
2012,09,27,12,35,18.40
2012,09,27,12,36,18.40
2012,09,27,12,37,18.50
2012,09,27,12,38,18.50
2012,09,27,12,39,18.60
2012,09,27,12,40,18.60
2012,09,27,12,41,18.60
2012,09,27,12,42,18.60
2012,09,27,12,43,18.60
2012,09,27,12,44,18.60
2012,09,27,12,45,18.60
2012,09,27,12,46,18.60
2012,09,27,12,47,18.60
2012,09,27,12,48,18.70
2012,09,27,12,49,18.70
2012,09,27,12,50,18.70
2012,09,27,12,51,18.70
2012,09,27,12,52,18.70
2012,09,27,12,53,18.70
2012,09,27,12,54,18.70
2012,09,27,12,55,18.80
2012,09,27,12,56,18.80
2012,09,27,12,57,18.80
2012,09,27,12,58,18.90
2012,09,27,12,59,18.90
2012,09,27,13,00,18.90
2012,09,27,13,01,18.90
2012,09,27,13,02,18.90
2012,09,27,13,03,18.90
2012,09,27,13,04,18.90
2012,09,27,13,05,18.90
2012,09,27,13,06,18.90
2012,09,27,13,07,18.90
2012,09,27,13,08,18.90
2012,09,27,13,09,18.90
2012,09,27,13,10,18.90
2012,09,27,13,11,18.90
2012,09,27,13,12,18.90
2012,09,27,13,13,19.00
2012,09,27,13,14,19.00
2012,09,27,13,15,19.10
2012,09,27,13,16,19.10
2012,09,27,13,17,19.10
2012,09,27,13,18,19.10
2012,09,27,13,19,19.10
2012,09,27,13,20,19.10
2012,09,27,13,21,19.10
2012,09,27,13,22,19.10
2012,09,27,13,23,19.10
2012,09,27,13,24,19.10
2012,09,27,13,25,19.10
2012,09,27,13,26,19.10
2012,09,27,13,27,19.10
2012,09,27,13,28,19.20
2012,09,27,13,29,19.20
2012,09,27,13,30,19.20
2012,09,27,13,31,19.30
2012,09,27,13,32,19.30
2012,09,27,13,33,19.30
2012,09,27,13,34,19.30
2012,09,27,13,35,19.30
2012,09,27,13,36,19.30
2012,09,27,13,37,19.30
2012,09,27,13,38,19.30
2012,09,27,13,39,19.40
2012,09,27,13,40,19.40
2012,09,27,13,41,19.50
2012,09,27,13,42,19.50
2012,09,27,13,43,19.50
2012,09,27,13,44,19.60
2012,09,27,13,45,19.60
2012,09,27,13,46,19.60
2012,09,27,13,47,19.60
2012,09,27,13,48,19.70
2012,09,27,13,49,19.70
2012,09,27,13,50,19.80
2012,09,27,13,51,19.80
2012,09,27,13,52,19.90
2012,09,27,13,53,19.90
2012,09,27,13,54,20.00
2012,09,27,13,55,20.00
2012,09,27,13,56,20.00
2012,09,27,13,57,20.00
2012,09,27,13,58,20.00
2012,09,27,13,59,20.10
2012,09,27,14,00,20.10
2012,09,27,14,01,20.10
2012,09,27,14,02,20.20
2012,09,27,14,03,20.20
2012,09,27,14,04,20.20
2012,09,27,14,05,20.20
2012,09,27,14,06,20.20
2012,09,27,14,07,20.20
2012,09,27,14,08,20.20
2012,09,27,14,09,20.30
2012,09,27,14,10,20.30
2012,09,27,14,11,20.30
2012,09,27,14,12,20.30
2012,09,27,14,13,20.30
2012,09,27,14,14,20.30
2012,09,27,14,15,20.30
2012,09,27,14,16,20.30
2012,09,27,14,17,20.30
2012,09,27,14,18,20.30
2012,09,27,14,19,20.30
2012,09,27,14,20,20.30
2012,09,27,14,21,20.40
2012,09,27,14,22,20.40
2012,09,27,14,23,20.50
2012,09,27,14,24,20.60
2012,09,27,14,25,20.60
2012,09,27,14,26,20.70
2012,09,27,14,27,20.70
2012,09,27,14,28,20.70
2012,09,27,14,29,20.80
2012,09,27,14,30,20.80
2012,09,27,14,31,20.80
2012,09,27,14,32,20.80
2012,09,27,14,33,20.80
2012,09,27,14,34,20.80
2012,09,27,14,35,20.80
2012,09,27,14,36,20.80
2012,09,27,14,37,20.90
2012,09,27,14,38,20.90
2012,09,27,14,39,21.00
2012,09,27,14,40,21.00
2012,09,27,14,41,21.00
2012,09,27,14,42,21.00
2012,09,27,14,43,21.00
2012,09,27,14,44,21.10
2012,09,27,14,45,21.10
2012,09,27,14,46,21.10
2012,09,27,14,47,21.20
2012,09,27,14,48,21.20
2012,09,27,14,49,21.30
2012,09,27,14,50,21.30
2012,09,27,14,51,21.30
2012,09,27,14,52,21.40
2012,09,27,14,53,21.40
2012,09,27,14,54,21.40
2012,09,27,14,55,21.40
2012,09,27,14,56,21.30
2012,09,27,14,57,21.30
2012,09,27,14,58,21.20
2012,09,27,14,59,21.20
2012,09,27,15,00,21.20
2012,09,27,15,01,21.20
2012,09,27,15,02,21.20
2012,09,27,15,03,21.20
2012,09,27,15,04,21.20
2012,09,27,15,05,21.20
2012,09,27,15,06,21.20
2012,09,27,15,07,21.20
2012,09,27,15,08,21.20
2012,09,27,15,09,21.20
2012,09,27,15,10,21.20
2012,09,27,15,11,21.20
2012,09,27,15,12,21.20
2012,09,27,15,13,21.20
2012,09,27,15,14,21.20
2012,09,27,15,15,21.30
2012,09,27,15,16,21.30
2012,09,27,15,17,21.30
2012,09,27,15,18,21.40
2012,09,27,15,19,21.50
2012,09,27,15,20,21.60
2012,09,27,15,21,21.70
2012,09,27,15,22,21.80
2012,09,27,15,23,21.80
2012,09,27,15,24,21.90
2012,09,27,15,25,21.90
2012,09,27,15,26,22.00
2012,09,27,15,27,22.00
2012,09,27,15,28,22.00
2012,09,27,15,29,22.00
2012,09,27,15,30,22.00
2012,09,27,15,31,22.10
2012,09,27,15,32,22.10
2012,09,27,15,33,22.20
2012,09,27,15,34,22.30
2012,09,27,15,35,22.30
2012,09,27,15,36,22.40
2012,09,27,15,37,22.40
2012,09,27,15,38,22.40
2012,09,27,15,39,22.40
2012,09,27,15,40,22.40
2012,09,27,15,41,22.40
2012,09,27,15,42,22.40
2012,09,27,15,43,22.40
2012,09,27,15,44,22.40
2012,09,27,15,45,22.50
2012,09,27,15,46,22.60
2012,09,27,15,47,22.70
2012,09,27,15,48,22.70
2012,09,27,15,49,22.80
2012,09,27,15,50,22.90
2012,09,27,15,51,23.00
2012,09,27,15,52,23.00
2012,09,27,15,53,23.10
2012,09,27,15,54,23.10
2012,09,27,15,55,23.10
2012,09,27,15,56,23.20
2012,09,27,15,57,23.20
2012,09,27,15,58,23.10
2012,09,27,15,59,23.20
2012,09,27,16,00,23.20
2012,09,27,16,01,23.20
2012,09,27,16,02,23.30
2012,09,27,16,03,23.30
2012,09,27,16,04,23.30
2012,09,27,16,05,23.30
2012,09,27,16,06,23.20
2012,09,27,16,07,23.20
2012,09,27,16,08,23.20
2012,09,27,16,09,23.20
2012,09,27,16,10,23.20
2012,09,27,16,11,23.20
2012,09,27,16,12,23.20
2012,09,27,16,13,23.20
2012,09,27,16,14,23.20
2012,09,27,16,15,23.20
2012,09,27,16,16,23.30
2012,09,27,16,17,23.30
2012,09,27,16,18,23.30
2012,09,27,16,19,23.30
2012,09,27,16,20,23.30
2012,09,27,16,21,23.30
2012,09,27,16,22,23.30
2012,09,27,16,23,23.20
2012,09,27,16,24,23.20
2012,09,27,16,25,23.10
2012,09,27,16,26,23.10
2012,09,27,16,27,23.10
2012,09,27,16,28,23.10
2012,09,27,16,29,23.10
2012,09,27,16,30,23.10
2012,09,27,16,31,23.10
2012,09,27,16,32,23.10
2012,09,27,16,33,23.10
2012,09,27,16,34,23.20
2012,09,27,16,35,23.20
2012,09,27,16,36,23.20
2012,09,27,16,37,23.20
2012,09,27,16,38,23.20
2012,09,27,16,39,23.20
2012,09,27,16,40,23.20
2012,09,27,16,41,23.20
2012,09,27,16,42,23.10
2012,09,27,16,43,23.00
2012,09,27,16,44,22.90
2012,09,27,16,45,22.80
2012,09,27,16,46,22.70
2012,09,27,16,47,22.60
2012,09,27,16,48,22.60
2012,09,27,16,49,22.50
2012,09,27,16,50,22.40
2012,09,27,16,51,22.40
2012,09,27,16,52,22.30
2012,09,27,16,53,22.30
2012,09,27,16,54,22.30
2012,09,27,16,55,22.30
2012,09,27,16,56,22.20
2012,09,27,16,57,22.20
2012,09,27,16,58,22.20
2012,09,27,16,59,22.20
2012,09,27,17,00,22.20
2012,09,27,17,01,22.30
2012,09,27,17,02,22.30
2012,09,27,17,03,22.30
2012,09,27,17,04,22.30
2012,09,27,17,05,22.30
2012,09,27,17,06,22.30
2012,09,27,17,07,22.40
2012,09,27,17,08,22.40
2012,09,27,17,09,22.40
2012,09,27,17,10,22.40
2012,09,27,17,11,22.50
2012,09,27,17,12,22.50
2012,09,27,17,13,22.50
2012,09,27,17,14,22.50
2012,09,27,17,15,22.50
2012,09,27,17,16,22.50
2012,09,27,17,17,22.40
2012,09,27,17,18,22.40
2012,09,27,17,19,22.40
2012,09,27,17,20,22.40
2012,09,27,17,21,22.30
2012,09,27,17,22,22.30
2012,09,27,17,23,22.20
2012,09,27,17,24,22.20
2012,09,27,17,25,22.20
2012,09,27,17,26,22.20
2012,09,27,17,27,22.10
2012,09,27,17,28,22.10
2012,09,27,17,29,22.00
2012,09,27,17,30,22.00
2012,09,27,17,31,21.90
2012,09,27,17,32,21.90
2012,09,27,17,33,21.80
2012,09,27,17,34,21.80
2012,09,27,17,35,21.80
2012,09,27,17,36,21.70
2012,09,27,17,37,21.70
2012,09,27,17,38,21.70
2012,09,27,17,39,21.70
2012,09,27,17,40,21.70
2012,09,27,17,41,21.70
2012,09,27,17,42,21.70
2012,09,27,17,43,21.70